VK5TRM-14 Weather Reports


Display with metric or nautical units.
time (UTC)temp
F
wind
direction
speed
MPH
gust
MPH
rain 1hr
in
rain 24hr
in
rain mn
in
humidity
%
barometer
mb
20260504191505 47 270 5.0 5.0 0.00 0.00 0.00 96 1020.6
20260504190005 47 270 6.0 7.0 0.00 0.00 0.00 95 1020.4
20260504184505 47 270 6.0 7.0 0.00 0.00 0.00 95 1020.4
20260504183005 48 270 5.0 6.0 0.00 0.00 0.00 95 1020.4
20260504181505 48 270 5.0 6.0 0.00 0.00 0.00 95 1020.4
20260504180005 49 292 7.0 8.0 0.00 0.00 0.00 94 1020.3
20260504174505 49 292 7.0 8.0 0.00 0.00 0.00 94 1020.3
20260504173005 48 270 6.0 7.0 0.00 0.00 0.00 94 1020.4
20260504171506 48 270 6.0 7.0 0.00 0.00 0.00 94 1020.4
20260504081505 64 315 9.0 13.0 0.00 0.00 0.00 60 1015.7
20260504050005 68 270 20.0 28.0 0.00 0.00 0.00 51 1013.8
20260504044505 68 270 20.0 28.0 0.00 0.00 0.00 51 1013.8
20260504043005 70 270 17.0 25.0 0.00 0.00 0.00 50 1013.6
20260504041505 70 270 17.0 25.0 0.00 0.00 0.00 50 1013.6
20260504040005 67 292 17.0 29.0 0.00 0.00 0.00 53 1013.8
20260504034506 67 292 17.0 29.0 0.00 0.00 0.00 53 1013.8
20260504033005 68 292 17.0 24.0 0.00 0.00 0.00 52 1014.2
20260504031505 68 292 17.0 24.0 0.00 0.00 0.00 52 1014.2
20260504030005 66 292 18.0 24.0 0.00 0.00 0.00 58 1014.6
20260504024505 66 292 18.0 24.0 0.00 0.00 0.00 58 1014.6
20260504023005 67 292 16.0 23.0 0.00 0.00 0.00 56 1014.7
20260504021505 67 292 16.0 23.0 0.00 0.00 0.00 56 1014.7
20260504020004 66 292 17.0 22.0 0.00 0.00 0.00 59 1015.0
20260504014505 66 292 17.0 22.0 0.00 0.00 0.00 59 1015.0
20260504013005 63 292 16.0 22.0 0.00 0.00 0.00 62 1015.0
20260504011505 63 292 16.0 22.0 0.00 0.00 0.00 62 1015.0
20260504010005 62 292 18.0 24.0 0.00 0.00 0.00 63 1014.8
20260504004505 62 292 18.0 24.0 0.00 0.00 0.00 63 1014.8
20260504003005 62 315 15.0 22.0 0.00 0.00 0.00 65 1014.6
20260504001505 62 315 15.0 22.0 0.00 0.00 0.00 65 1014.6
20260504000006 60 315 18.0 28.0 0.00 0.00 0.01 68 1014.5
20260503234505 60 315 18.0 28.0 0.00 0.00 0.01 68 1014.5
20260503233005 58 315 16.0 21.0 0.00 0.00 0.01 70 1014.3
20260503231505 58 315 16.0 21.0 0.00 0.00 0.01 70 1014.3
20260503230006 56 337 13.0 17.0 0.00 0.00 0.01 75 1014.1
20260503224505 56 337 13.0 17.0 0.00 0.00 0.01 75 1014.1
20260503223005 53 337 14.0 17.0 0.00 0.00 0.01 80 1013.9
20260503221505 53 337 14.0 17.0 0.00 0.00 0.01 80 1013.9
20260503220005 52 337 15.0 20.0 0.00 0.00 0.01 82 1013.6
20260503214505 52 337 15.0 20.0 0.00 0.00 0.01 82 1013.6
20260503213005 52 337 14.0 20.0 0.00 0.00 0.01 83 1013.4
20260503211505 52 337 14.0 20.0 0.00 0.00 0.01 83 1013.4
20260503210005 52 337 15.0 18.0 0.00 0.00 0.01 83 1013.2
20260503204504 52 337 15.0 18.0 0.00 0.00 0.01 83 1013.2
20260503203005 53 337 13.0 17.0 0.00 0.00 0.01 82 1013.1
20260503201505 53 337 13.0 17.0 0.00 0.00 0.01 82 1013.1
20260503200005 53 337 12.0 16.0 0.00 0.00 0.01 82 1013.2
20260503194505 53 337 12.0 16.0 0.00 0.00 0.01 82 1013.2
20260503193005 53 337 12.0 16.0 0.00 0.00 0.01 81 1013.1